Fayetteville, NC

5:23 AM EDT on May 28, 2017 (GMT -0400)
Fayetteville Regional-Grannis

Weather History for KFAY - March, 2013

Change the Weather History Date:

Monday, March 25, 2013

  Actual Average Record
Temperature  
Mean Temperature 45 °F 57 °F  
Max Temperature 52 °F 69 °F 87 °F (1939)
Min Temperature 38 °F 45 °F 23 °F (1940)
Degree Days  
Heating Degree Days 20 8  
Month to date heating degree days 419 297  
Since 1 July heating degree days 2515 2522  
Cooling Degree Days 0 0  
Month to date cooling degree days 3 0  
Year to date cooling degree days 8 4  
Moisture  
Dew Point 34 °F    
Average Humidity 67    
Maximum Humidity 100    
Minimum Humidity 34    
Precipitation  
Precipitation 0.02 in 0.12 in 1.65 in (1983)
Month to date precipitation 1.46 2.73  
Year to date precipitation 7.10 8.79  
Sea Level Pressure  
Sea Level Pressure 29.63 in    
Wind  
Wind Speed 10 mph (West)    
Max Wind Speed 32 mph    
Max Gust Speed 40 mph    
Visibility 7 miles    
Events      
T = Trace of Precipitation, MM = Missing Value Source: NWS Daily Summary

Daily Weather History Graph

Daily Weather History Graph

Search for Another Location

Airport or City:

Trip Planner

Search our weather history database for the weather conditions in past years. The results will help you decide how hot, cold, wet, or windy it might be!

Date:

Astronomy

Mar. 25, 2013 Rise Set
Actual Time 7:11 AM EDT 7:31 PM EDT
Civil Twilight 6:46 AM EDT 7:56 PM EDT
Nautical Twilight 6:16 AM EDT 8:26 PM EDT
Astronomical Twilight 5:46 AM EDT 8:56 PM EDT
Moon 6:03 PM EDT (3/25) 5:50 AM EDT (3/25)
Length of Visible Light 13h 10m
Length of Day
12h 19m
Waxing Gibbous, 96% of the Moon is Illuminated
Mar 25
Waxing Gibbous
Mar 27
Full
Apr 3
Last Quarter
Apr 10
New
Apr 18
First Quarter

Hourly Weather History & Observations

Time (EDT) Temp. Windchill Dew Point Humidity Pressure Visibility Wind Dir Wind Speed Gust Speed Precip Events Conditions
12:53 AM 39.9 °F 35.8 °F 37.9 °F 93% 29.58 in 7.0 mi NNE 5.8 mph - N/A   Overcast
1:53 AM 39.0 °F 36.8 °F 37.9 °F 96% 29.56 in 10.0 mi NNE 3.5 mph - N/A   Overcast
2:53 AM 39.0 °F - 37.0 °F 93% 29.57 in 10.0 mi Calm Calm - N/A   Overcast
3:53 AM 39.9 °F 34.5 °F 37.9 °F 93% 29.56 in 3.0 mi SSW 8.1 mph - N/A   Overcast
4:53 AM 39.9 °F 35.8 °F 37.9 °F 93% 29.55 in 4.0 mi SW 5.8 mph - N/A   Overcast
5:53 AM 39.9 °F 35.8 °F 39.0 °F 97% 29.56 in 3.0 mi WSW 5.8 mph - N/A   Overcast
6:01 AM 39.2 °F 35.9 °F 39.2 °F 100% 29.57 in 2.5 mi WSW 4.6 mph - 0.01 in   Overcast
6:48 AM 39.2 °F 35.0 °F 39.2 °F 100% 29.58 in 2.5 mi West 5.8 mph - 0.01 in   Overcast
6:53 AM 39.9 °F 36.7 °F 39.0 °F 97% 29.57 in 2.0 mi West 4.6 mph - 0.01 in   Overcast
7:13 AM 39.2 °F 35.0 °F 39.2 °F 100% 29.58 in 3.0 mi WSW 5.8 mph - N/A   Overcast
7:49 AM 41.0 °F 39.0 °F 39.2 °F 93% 29.58 in 2.5 mi WNW 3.5 mph - N/A   Overcast
7:53 AM 41.0 °F 39.0 °F 39.9 °F 96% 29.58 in 2.0 mi WNW 3.5 mph - N/A   Overcast
8:53 AM 41.0 °F 38.0 °F 39.9 °F 96% 29.58 in 2.0 mi West 4.6 mph - 0.01 in   Overcast
9:23 AM 41.0 °F 37.1 °F 39.2 °F 93% 29.60 in 3.0 mi WSW 5.8 mph - N/A   Overcast
9:53 AM 42.1 °F 37.7 °F 39.9 °F 92% 29.60 in 8.0 mi WSW 6.9 mph - N/A   Overcast
10:33 AM 42.8 °F 36.6 °F 41.0 °F 93% 29.61 in 7.0 mi West 11.5 mph - 0.00 in   Overcast
10:53 AM 43.0 °F 36.0 °F 39.9 °F 89% 29.61 in 10.0 mi WSW 13.8 mph 18.4 mph 0.00 in   Overcast
11:17 AM 42.8 °F 35.8 °F 39.2 °F 87% 29.63 in 10.0 mi WSW 13.8 mph - 0.00 in   Overcast
11:53 AM 45.0 °F 40.1 °F 39.0 °F 80% 29.62 in 10.0 mi West 9.2 mph - 0.00 in   Overcast
12:16 PM 42.8 °F 36.2 °F 35.6 °F 76% 29.64 in 10.0 mi WNW 12.7 mph 20.7 mph N/A   Overcast
12:53 PM 45.0 °F 39.3 °F 36.0 °F 71% 29.62 in 10.0 mi West 11.5 mph 20.7 mph N/A   Overcast
1:53 PM 48.9 °F - 32.0 °F 52% 29.62 in 10.0 mi West 18.4 mph 31.1 mph N/A   Overcast
2:53 PM 52.0 °F - 28.9 °F 41% 29.61 in 10.0 mi West 19.6 mph 34.5 mph N/A   Overcast
3:53 PM 48.9 °F - 24.1 °F 38% 29.62 in 10.0 mi West 24.2 mph 33.4 mph N/A   Overcast
4:53 PM 48.9 °F - 23.0 °F 36% 29.64 in 10.0 mi West 21.9 mph 28.8 mph N/A   Overcast
5:53 PM 48.9 °F - 21.9 °F 35% 29.66 in 10.0 mi WNW 16.1 mph 24.2 mph N/A   Overcast
6:53 PM 48.0 °F - 21.9 °F 36% 29.70 in 10.0 mi West 10.4 mph - N/A   Overcast
7:53 PM 46.9 °F - 21.9 °F 37% 29.74 in 10.0 mi West 8.1 mph - N/A   Overcast
8:53 PM 45.0 °F 39.7 °F 23.0 °F 42% 29.76 in 10.0 mi West 10.4 mph - N/A   Scattered Clouds
9:53 PM 44.1 °F 38.1 °F 21.0 °F 40% 29.79 in 10.0 mi West 11.5 mph 19.6 mph N/A   Clear
10:53 PM 41.0 °F 34.7 °F 21.9 °F 47% 29.82 in 10.0 mi West 10.4 mph - N/A   Partly Cloudy
11:53 PM 39.9 °F 33.9 °F 21.9 °F 49% 29.83 in 10.0 mi West 9.2 mph - N/A   Clear